| time (UTC) | temp F | wind direction | speed MPH | gust MPH | rain 1hr in | rain 24hr in | rain mn in | humidity % | barometer mb |
| 20260906163055 | 51 | 271 | 0.0 | 3.0 | 0.00 | 0.18 | 0.18 | 84 | 1009.7 |
| 20260906161600 | 50 | 338 | 1.0 | 4.0 | 0.00 | 0.18 | 0.18 | 87 | 1009.7 |
| 20260906160053 | 49 | 319 | 0.0 | 2.0 | 0.00 | 0.18 | 0.18 | 90 | 1009.8 |
| 20260906154548 | 48 | 320 | 0.0 | 1.0 | 0.00 | 0.18 | 0.18 | 92 | 1010.0 |
| 20260906153048 | 47 | 317 | 0.0 | 3.0 | 0.00 | 0.18 | 0.18 | 93 | 1009.9 |
| 20260906151548 | 46 | 320 | 1.0 | 3.0 | 0.00 | 0.18 | 0.18 | 93 | 1010.0 |
| 20260906150057 | 46 | 70 | 0.0 | 2.0 | 0.00 | 0.18 | 0.18 | 94 | 1009.8 |
| 20260906144559 | 45 | 84 | 0.0 | 1.0 | 0.00 | 0.18 | 0.18 | 95 | 1010.0 |
| 20260906143046 | 44 | 85 | 0.0 | 1.0 | 0.00 | 0.18 | 0.18 | 94 | 1009.9 |
| 20260906141547 | 44 | 85 | 0.0 | 1.0 | 0.00 | 0.18 | 0.18 | 93 | 1009.8 |
| 20260906140044 | 44 | 84 | 0.0 | 0.0 | 0.00 | 0.18 | 0.18 | 93 | 1009.4 |
| 20260906134543 | 44 | 87 | 0.0 | 1.0 | 0.00 | 0.18 | 0.18 | 92 | 1009.8 |
| 20260906133043 | 44 | 88 | 0.0 | 0.0 | 0.00 | 0.18 | 0.18 | 91 | 1009.7 |
| 20260906131542 | 44 | 88 | 0.0 | 1.0 | 0.00 | 0.18 | 0.18 | 91 | 1009.6 |
| 20260906130047 | 44 | 88 | 0.0 | 2.0 | 0.00 | 0.18 | 0.18 | 91 | 1009.7 |
| 20260906124541 | 44 | 86 | 0.0 | 2.0 | 0.00 | 0.18 | 0.18 | 92 | 1009.6 |
| 20260906123039 | 45 | 346 | 0.0 | 2.0 | 0.00 | 0.18 | 0.18 | 91 | 1009.6 |
| 20260906121537 | 45 | 44 | 0.0 | 1.0 | 0.00 | 0.18 | 0.18 | 90 | 1009.5 |
| 20260906120046 | 46 | 346 | 1.0 | 4.0 | 0.00 | 0.18 | 0.18 | 89 | 1009.6 |
| 20260906114540 | 46 | 120 | 0.0 | 2.0 | 0.00 | 0.18 | 0.18 | 88 | 1009.4 |
| 20260906113036 | 46 | 126 | 1.0 | 2.0 | 0.00 | 0.18 | 0.18 | 89 | 1009.5 |
| 20260906111537 | 46 | 89 | 1.0 | 7.0 | 0.00 | 0.18 | 0.18 | 90 | 1009.8 |
| 20260906110041 | 46 | 59 | 0.0 | 2.0 | 0.00 | 0.18 | 0.18 | 92 | 1011.1 |
| 20260906104533 | 46 | 51 | 0.0 | 2.0 | 0.01 | 0.18 | 0.18 | 91 | 1010.2 |
| 20260906103033 | 46 | 56 | 0.0 | 3.0 | 0.01 | 0.18 | 0.18 | 89 | 1010.0 |
| 20260906101533 | 47 | 88 | 0.0 | 3.0 | 0.01 | 0.18 | 0.18 | 88 | 1009.6 |
| 20260906100032 | 47 | 346 | 0.0 | 4.0 | 0.02 | 0.18 | 0.18 | 87 | 1009.5 |
| 20260906094547 | 47 | 68 | 2.0 | 5.0 | 0.01 | 0.17 | 0.17 | 89 | 1009.6 |
| 20260906093037 | 46 | 65 | 1.0 | 2.0 | 0.02 | 0.17 | 0.17 | 92 | 1011.0 |
| 20260906091537 | 46 | 144 | 2.0 | 6.0 | 0.04 | 0.17 | 0.17 | 92 | 1012.9 |
| 20260906090028 | 45 | 42 | 1.0 | 3.0 | 0.06 | 0.16 | 0.16 | 93 | 1011.2 |
| 20260906084534 | 45 | 171 | 1.0 | 6.0 | 0.08 | 0.16 | 0.16 | 92 | 1011.2 |
| 20260906083028 | 45 | 37 | 1.0 | 5.0 | 0.07 | 0.15 | 0.15 | 91 | 1010.2 |
| 20260906081539 | 46 | 342 | 1.0 | 2.0 | 0.06 | 0.13 | 0.13 | 91 | 1011.1 |
| 20260906080019 | 47 | 325 | 0.0 | 5.0 | 0.09 | 0.09 | 0.09 | 90 | 1012.2 |
| 20260906074517 | 47 | 85 | 0.0 | 2.0 | 0.08 | 0.08 | 0.08 | 90 | 1012.7 |
| 20260906073016 | 47 | 360 | 0.0 | 4.0 | 0.08 | 0.08 | 0.08 | 89 | 1012.2 |
| 20260906071511 | 48 | 150 | 0.0 | 6.0 | 0.07 | 0.07 | 0.07 | 88 | 1012.1 |
| 20260906070008 | 49 | 329 | 0.0 | 2.0 | 0.00 | 0.00 | 0.00 | 81 | 1012.0 |
| 20260906064505 | 49 | 300 | 1.0 | 3.0 | 0.00 | 0.00 | 0.00 | 81 | 1010.1 |
| 20260906063006 | 49 | 344 | 0.0 | 2.0 | 0.00 | 0.00 | 0.00 | 81 | 1009.8 |
| 20260906061601 | 49 | 320 | 1.0 | 4.0 | 0.00 | 0.00 | 0.00 | 81 | 1010.1 |
| 20260906060057 | 49 | 298 | 0.0 | 1.0 | 0.00 | 0.00 | 0.00 | 77 | 1009.6 |
| 20260906054556 | 50 | 298 | 0.0 | 3.0 | 0.00 | 0.00 | 0.00 | 77 | 1010.2 |
| 20260906053055 | 48 | 324 | 0.0 | 1.0 | 0.00 | 0.00 | 0.00 | 78 | 1010.4 |
| 20260906051555 | 47 | 324 | 0.0 | 2.0 | 0.00 | 0.00 | 0.00 | 80 | 1011.5 |
| 20260906050113 | 48 | 324 | 0.0 | 2.0 | 0.00 | 0.00 | 0.00 | 78 | 1010.8 |
| 20260906044555 | 49 | 324 | 0.0 | 3.0 | 0.00 | 0.00 | 0.00 | 77 | 1010.7 |
| 20260906043056 | 49 | 324 | 0.0 | 1.0 | 0.00 | 0.00 | 0.00 | 75 | 1011.0 |
| 20260906041553 | 49 | 49 | 0.0 | 1.0 | 0.00 | 0.00 | 0.00 | 74 | 1010.7 |
| 20260906040114 | 49 | 71 | 0.0 | 0.0 | 0.00 | 0.00 | 0.00 | 73 | 1010.8 |
| 20260906034602 | 50 | 71 | 0.0 | 2.0 | 0.00 | 0.00 | 0.00 | 70 | 1010.6 |
| 20260906033052 | 51 | 71 | 0.0 | 1.0 | 0.00 | 0.00 | 0.00 | 70 | 1010.4 |
| 20260906031557 | 51 | 73 | 0.0 | 0.0 | 0.00 | 0.00 | 0.00 | 69 | 1010.1 |
| 20260906030053 | 52 | 69 | 0.0 | 2.0 | 0.00 | 0.00 | 0.00 | 68 | 1010.2 |
| 20260906024550 | 53 | 84 | 0.0 | 1.0 | 0.00 | 0.00 | 0.00 | 66 | 1010.3 |
| 20260906023052 | 54 | 86 | 0.0 | 2.0 | 0.00 | 0.00 | 0.00 | 65 | 1010.1 |
| 20260906021601 | 54 | 107 | 0.0 | 2.0 | 0.00 | 0.00 | 0.00 | 63 | 1010.0 |
| 20260906020056 | 56 | 106 | 0.0 | 1.0 | 0.00 | 0.00 | 0.00 | 60 | 1010.0 |
| 20260906014556 | 57 | 114 | 0.0 | 2.0 | 0.00 | 0.00 | 0.00 | 56 | 1010.0 |
| 20260906013048 | 58 | 123 | 0.0 | 2.0 | 0.00 | 0.00 | 0.00 | 55 | 1010.0 |
| 20260906011547 | 59 | 180 | 0.0 | 1.0 | 0.00 | 0.00 | 0.00 | 53 | 1010.1 |
| 20260906010046 | 61 | 360 | 0.0 | 1.0 | 0.00 | 0.00 | 0.00 | 52 | 1010.2 |
| 20260906004547 | 61 | 190 | 0.0 | 1.0 | 0.00 | 0.00 | 0.00 | 47 | 1010.2 |
| 20260906003047 | 62 | 197 | 0.0 | 5.0 | 0.00 | 0.00 | 0.00 | 46 | 1010.2 |
| 20260906001544 | 63 | 169 | 2.0 | 7.0 | 0.00 | 0.00 | 0.00 | 43 | 1010.2 |
| 20260906000044 | 63 | 360 | 1.0 | 8.0 | 0.00 | 0.00 | 0.00 | 43 | 1010.5 |
| 20260905234544 | 64 | 182 | 2.0 | 10.0 | 0.00 | 0.00 | 0.00 | 43 | 1010.3 |
| 20260905233044 | 64 | 216 | 1.0 | 11.0 | 0.00 | 0.00 | 0.00 | 43 | 1010.4 |
| 20260905231542 | 64 | 210 | 2.0 | 5.0 | 0.00 | 0.00 | 0.00 | 43 | 1010.5 |
| 20260905230041 | 64 | 182 | 6.0 | 9.0 | 0.00 | 0.00 | 0.00 | 45 | 1010.5 |
| 20260905224544 | 63 | 196 | 1.0 | 5.0 | 0.00 | 0.00 | 0.00 | 45 | 1010.3 |
| 20260905223044 | 64 | 165 | 3.0 | 11.0 | 0.00 | 0.00 | 0.00 | 44 | 1010.5 |
| 20260905221547 | 65 | 171 | 3.0 | 10.0 | 0.00 | 0.00 | 0.00 | 43 | 1010.5 |
| 20260905220039 | 66 | 248 | 3.0 | 7.0 | 0.00 | 0.00 | 0.00 | 44 | 1010.6 |
| 20260905214539 | 65 | 360 | 1.0 | 5.0 | 0.00 | 0.00 | 0.00 | 46 | 1010.7 |
| 20260905213038 | 66 | 174 | 3.0 | 9.0 | 0.00 | 0.00 | 0.00 | 42 | 1010.8 |
| 20260905211543 | 64 | 172 | 2.0 | 10.0 | 0.00 | 0.00 | 0.00 | 44 | 1010.9 |
| 20260905210046 | 65 | 182 | 3.0 | 12.0 | 0.00 | 0.00 | 0.00 | 48 | 1010.9 |
| 20260905204533 | 65 | 288 | 1.0 | 5.0 | 0.00 | 0.00 | 0.00 | 48 | 1010.8 |
| 20260905203034 | 64 | 325 | 1.0 | 5.0 | 0.00 | 0.00 | 0.00 | 57 | 1010.9 |
| 20260905201534 | 63 | 309 | 1.0 | 5.0 | 0.00 | 0.00 | 0.00 | 60 | 1010.9 |
| 20260905200035 | 61 | 360 | 0.0 | 2.0 | 0.00 | 0.00 | 0.00 | 63 | 1011.2 |
| 20260905194524 | 62 | 329 | 2.0 | 6.0 | 0.00 | 0.00 | 0.00 | 64 | 1011.3 |
| 20260905193024 | 62 | 360 | 2.0 | 9.0 | 0.00 | 0.00 | 0.00 | 57 | 1011.4 |
| 20260905191522 | 61 | 360 | 5.0 | 13.0 | 0.00 | 0.00 | 0.00 | 55 | 1011.7 |
| 20260905190022 | 61 | 360 | 5.0 | 11.0 | 0.00 | 0.00 | 0.00 | 55 | 1012.0 |
| 20260905184526 | 62 | 228 | 1.0 | 9.0 | 0.00 | 0.00 | 0.00 | 57 | 1012.0 |
| 20260905183017 | 60 | 168 | 2.0 | 7.0 | 0.00 | 0.00 | 0.00 | 66 | 1012.1 |
| 20260905181514 | 59 | 171 | 1.0 | 3.0 | 0.00 | 0.00 | 0.00 | 69 | 1012.4 |
| 20260905180010 | 58 | 219 | 0.0 | 4.0 | 0.00 | 0.00 | 0.00 | 74 | 1012.6 |
| 20260905174508 | 56 | 355 | 0.0 | 3.0 | 0.00 | 0.00 | 0.00 | 79 | 1012.8 |
| 20260905173007 | 54 | 151 | 0.0 | 5.0 | 0.00 | 0.00 | 0.00 | 81 | 1013.0 |
| 20260905171607 | 54 | 161 | 0.0 | 1.0 | 0.00 | 0.00 | 0.00 | 84 | 1013.0 |
| 20260905170059 | 51 | 163 | 0.0 | 4.0 | 0.00 | 0.00 | 0.00 | 87 | 1013.2 |
| 20260905164552 | 49 | 360 | 0.0 | 5.0 | 0.00 | 0.00 | 0.00 | 94 | 1013.3 |